Flag for Germany Weather past 2 weeks in Witzenhausen, Hesse, Germany

Now
66 °F

Partly sunny.


Feels Like: 66 °F
Forecast: 50 / 77 °F
Wind: 5 mph from North

Location: Kassel / Calden

Current Time: Aug 28, 2015 at 7:11:16 PM

Latest Report: Aug 28, 2015 at 6:20 PM


Visibility: N/A

Pressure: 30.12 "Hg

Humidity: 68%

Dew point: 55 °F

Location of WitzenhausenLocation

Historic Weather in Witzenhausen — Graph

°F

Witzenhausen temperature yesterday

Maximum temperature yesterday: 70 °F (at 6:20 AM)
Minimum temperature yesterday: 59 °F (at 8:20 PM)
Average temperature yesterday: 66 °F

Past Weeks' High & Low Weather Summary

 TemperatureHumidityPressure
High86 °F (Aug 13, 6:20 PM)100% (Aug 15, 5:50 AM)30.30 "Hg (Aug 15, 5:50 AM)
Low48 °F (Aug 19, 5:50 AM)30% (Aug 22, 3:20 PM)29.65 "Hg (Aug 24, 4:50 PM)
Average66 °F72%29.96 "Hg
* Reported Aug 13 6:20 PM — Aug 28 6:20 PM, Witzenhausen, Weather by CustomWeather, © 2015

Note: Actual official high and low records may vary slightly from our data, if they occured in-between our weather recording intervals... More about our weather records

Advertising

Witzenhausen weather history for previous 24 hours

 ConditionsComfort  
Time TempWeatherWind HumidityBarometerVisibility
6:20 PM
Fri, Aug 28
66 °FPartly sunny.5 mph68%30.12 "HgN/A
5:50 PM66 °FPartly sunny.2 mph68%30.12 "HgN/A
5:20 PM64 °FPartly sunny.2 mph73%30.09 "HgN/A
4:50 PM66 °FPartly sunny.1 mph68%30.09 "HgN/A
4:20 PM66 °FPartly sunny.2 mph68%30.09 "HgN/A
3:50 PM64 °FPartly sunny.3 mph73%30.09 "HgN/A
3:20 PM63 °FPartly sunny.3 mph77%30.09 "HgN/A
2:50 PM63 °FPartly sunny.3 mph73%30.09 "HgN/A
2:20 PM63 °FPartly sunny.2 mph73%30.09 "HgN/A
1:50 PM63 °FPartly sunny.3 mph73%30.09 "HgN/A
1:20 PM63 °FBroken clouds.2 mph73%30.09 "HgN/A
12:50 PM63 °FBroken clouds.2 mph73%30.07 "HgN/A
12:20 PM61 °FBroken clouds.2 mph77%30.07 "HgN/A
11:50 AM61 °FBroken clouds.3 mph77%30.07 "HgN/A
11:20 AM63 °FBroken clouds.2 mph73%30.07 "HgN/A
10:50 AM59 °FPartly sunny.2 mph77%30.04 "HgN/A
10:20 AM57 °FPartly sunny.5 mph82%30.04 "HgN/A
9:50 AM57 °FPartly sunny.5 mph88%30.04 "HgN/A
9:20 AM55 °FPartly sunny.5 mph94%30.04 "HgN/A
8:50 AM55 °FPartly sunny.6 mph63%30.04 "HgN/A
8:20 AM55 °FPartly sunny.3 mph100%30.01 "HgN/A
7:50 AM55 °FPartly sunny.5 mph100%30.01 "Hg6 mi
7:20 AM55 °FOvercast.3 mph100%30.01 "Hg5 mi
6:50 AM55 °FLow clouds.1 mph100%29.98 "Hg6 mi
6:20 AM55 °FPartly cloudy.3 mph100%29.98 "Hg5 mi
5:50 AM55 °FPartly cloudy.5 mph100%29.98 "Hg5 mi
9:50 PM
Thu, Aug 27
59 °FLight rain. Passing clouds.2 mph100%29.86 "Hg6 mi
9:20 PM59 °FLight rain. Partly cloudy.2 mph100%29.89 "Hg6 mi
8:50 PM59 °FLight rain. Broken clouds.6 mph100%29.89 "HgN/A
8:20 PM59 °FLight rain. Broken clouds.9 mph100%29.89 "Hg6 mi
7:50 PM61 °FLight rain. Broken clouds.10 mph100%29.86 "Hg6 mi
7:20 PM63 °FLight rain. Broken clouds.7 mph100%29.86 "Hg6 mi
Weather by CustomWeather, © 2015

See weather overviewHow to use our weather pages